TimeIST,TemperatureF,Dew PointF,Humidity,Sea Level PressureIn,VisibilityMPH,Wind Direction,Wind SpeedMPH,Gust SpeedMPH,PrecipitationIn,Events,Conditions,WindDirDegrees,DateUTC
12:50 AM,59.0,44.6,59,30.06,-9999.0,West,5.8,-,N/A,,Clear,280,2012-11-11 22:50:00
1:50 AM,55.4,44.6,67,30.06,-9999.0,Variable,2.3,-,N/A,,Clear,0,2012-11-11 23:50:00
2:50 AM,53.6,44.6,72,30.06,-9999.0,South,5.8,-,N/A,,Clear,190,2012-11-12 00:50:00
3:50 AM,53.6,44.6,72,30.06,-9999.0,SW,3.5,-,N/A,,Clear,230,2012-11-12 01:50:00
4:50 AM,53.6,46.4,77,30.06,-9999.0,WSW,6.9,-,N/A,,Clear,250,2012-11-12 02:50:00
5:50 AM,55.4,48.2,77,30.06,6.2,WSW,11.5,-,N/A,,Partly Cloudy,250,2012-11-12 03:50:00
6:50 AM,55.4,48.2,77,30.06,6.2,SW,10.4,-,N/A,,Partly Cloudy,230,2012-11-12 04:50:00
7:50 AM,60.8,50.0,68,30.06,-9999.0,West,9.2,-,N/A,,Clear,260,2012-11-12 05:50:00
8:50 AM,62.6,50.0,63,30.09,6.2,WSW,10.4,-,N/A,,Partly Cloudy,250,2012-11-12 06:50:00
9:50 AM,66.2,48.2,52,30.06,6.2,WSW,8.1,-,N/A,,Partly Cloudy,250,2012-11-12 07:50:00
10:50 AM,66.2,48.2,52,30.06,6.2,West,5.8,-,N/A,,Mostly Cloudy,260,2012-11-12 08:50:00
11:50 AM,69.8,48.2,46,30.04,6.2,NW,8.1,-,N/A,,Mostly Cloudy,310,2012-11-12 09:50:00
12:50 PM,69.8,48.2,46,30.01,6.2,WNW,9.2,-,N/A,,Mostly Cloudy,290,2012-11-12 10:50:00
1:50 PM,71.6,46.4,41,30.01,6.2,WNW,8.1,-,N/A,,Partly Cloudy,300,2012-11-12 11:50:00
2:50 PM,68.0,46.4,46,29.98,6.2,WNW,9.2,-,N/A,,Partly Cloudy,290,2012-11-12 12:50:00
3:50 PM,69.8,48.2,46,30.01,6.2,WNW,9.2,-,N/A,,Scattered Clouds,290,2012-11-12 13:50:00
4:50 PM,68.0,46.4,46,30.01,6.2,WNW,13.8,-,N/A,,Mostly Cloudy,300,2012-11-12 14:50:00
5:50 PM,64.4,51.8,64,30.01,6.2,NNW,20.7,-,N/A,,Mostly Cloudy,330,2012-11-12 15:50:00
5:58 PM,62.6,51.8,68,30.04,6.2,NW,19.6,31.1,N/A,,Mostly Cloudy,320,2012-11-12 15:58:00
6:28 PM,62.6,53.6,72,30.04,6.2,NW,13.8,-,N/A,,Mostly Cloudy,320,2012-11-12 16:28:00
6:50 PM,62.6,53.6,72,30.04,6.2,NNW,13.8,-,N/A,,Mostly Cloudy,330,2012-11-12 16:50:00
7:50 PM,60.8,53.6,77,30.06,6.2,WNW,13.8,-,N/A,Rain,Light Rain,300,2012-11-12 17:50:00
8:50 PM,60.8,53.6,77,30.06,6.2,NW,9.2,-,N/A,Rain,Light Rain,310,2012-11-12 18:50:00
9:50 PM,59.0,55.4,88,30.06,-9999.0,West,6.9,-,N/A,,Clear,280,2012-11-12 19:50:00
10:50 PM,59.0,55.4,88,30.06,6.2,WNW,10.4,-,N/A,,Mostly Cloudy,290,2012-11-12 20:50:00
11:50 PM,59.0,55.4,88,30.04,6.2,NW,5.8,-,N/A,,Scattered Clouds,310,2012-11-12 21:50:00